星链-34774(STARLINK-34774)

导读

STARLINK-34774是美国SpaceX星链星座的一员,于2025年11月15日发射入轨。星链项目旨在构建全球卫星互联网星座,为全球提供高速低延迟宽带服务。该卫星延续星链设计标准,服役后将补充星座网络容量,助力实现全球覆盖,进一步提升星链服务的稳定性与覆盖能力。

Basic Information
目录编号:
66485
目录名称:
STARLINK-34774
国际标识:
2025-263A
轨道中心:
EARTH
卫星名称:
星链-34774
卫星全名:
星链-34774(STARLINK-34774)
卫星状态:
在轨 (已飞行210 天)
发射日期:
2025-11-15 UTC
国别 :
美国 (US)
星等 :
--
Orbit Information
数据来源 国际轨道数据 AOE轨道数据
星历时间 2026-06-13T15:03:33+0800
5小时前
查看轨道信息
2026-06-10T04:00:00+0800
3天前
查看轨道信息
半长轴 6861.16km 6861.115km
偏心率 0.0001288 0.0002317
轨道倾角 42.999° 43.004°
近地点辐角 270.379° 277.610°
升交点赤经 170.495° 190.045°
平近点角 89.691° 108.176°
近地点 482.139km 481.388km
远地点 483.907km 484.568km
周期 94.266分钟 94.265分钟
每日圈数 15.275888 15.276039
Detailed Information
固有亮度:
5
最大亮度:
2.5
卫星平台:
Starlink V1.0
覆盖范围:
全球
运营商:
太空探索技术公司
运营商所在国:
美国
制造商(研发单位):
太空探索技术公司
制造商所在国:
美国
使用方式:
暂无
Satellite Introduction
Starlink 计划是 SpaceX 推出的全球卫星互联网项目,通过发射低轨道卫星,为全球尤其是偏远地区提供高速、低延迟的互联网服务。自 2019 年起,Starlink 已部署数千颗卫星,旨在缩小全球数字鸿沟,推动互联网普及。该项目还为军事、航空等行业提供通信支持,带来广泛经济效益。
2D Orbit Map
3D Orbit Map
Orbit Altitude Analysis Chart
Orbit Inclination Analysis Chart
Orbit Comprehensive Analysis Chart
View Comprehensive Chart